Location: Lafig�re
(44.4503°N, 4.0357°E)
Time: 20:57:02
(UTC+00:00)

Vanguard 2 - Visible Passes

Search period start: 21 January 2021 00:00
Search period end: 31 January 2021 00:00
Orbit: 553 x 2937 km, 32.9° (Epoch: 20 January)

Date Brightness Start Highest point End Pass type
(mag) Time Alt. Az. Time Alt. Az. Time Alt. Az.
21 Jan 9.1 17:57:55 10° SW 18:01:33 23° SSE 18:05:45 12° ESE visible
21 Jan 9.7 20:04:33 10° WSW 20:07:09 22° SW 20:07:09 22° SW visible
22 Jan 9.1 18:15:22 10° SW 18:19:06 24° S 18:22:35 15° SE visible
22 Jan 10.1 20:22:24 10° WSW 20:24:00 17° SW 20:24:00 17° SW visible
23 Jan 9.2 18:32:56 10° SW 18:36:41 24° S 18:39:27 17° SE visible
23 Jan 10.4 20:40:28 10° WSW 20:40:51 11° SW 20:40:51 11° SW visible
24 Jan 9.3 18:50:38 10° SW 18:54:18 22° S 18:56:21 18° SSE visible
25 Jan 9.5 19:08:30 10° SW 19:11:56 19° S 19:13:18 18° SSE visible
26 Jan 9.2 17:18:57 10° SW 17:21:52 19° S 17:25:15 10° SE visible
26 Jan 9.8 19:26:37 10° SW 19:29:35 16° S 19:30:18 15° S visible
27 Jan 9.3 17:36:38 10° SW 17:39:27 18° S 17:42:43 10° SE visible
27 Jan 10.1 19:45:22 10° SW 19:47:15 12° SSW 19:47:20 12° SSW visible
28 Jan 9.5 17:54:30 10° SW 17:57:03 16° S 17:59:56 10° SSE visible
29 Jan 9.7 18:12:44 10° SW 18:14:38 13° SSW 18:16:44 10° SSE visible
